Location: Mahannah Oil Field
(37.4664°N, 96.6003°W)
Time: 06:16:59
(UTC+00:00)

S-56A Canister/Altair - All Passes

Search period start: 28 January 2021 00:00
Search period end: 07 February 2021 00:00
Orbit: 633 x 2499 km, 38.9° (Epoch: 27 January)

Date Brightness Start Highest point End Pass type
(mag) Time Alt. Az. Time Alt. Az. Time Alt. Az.
28 Jan - 04:42:01 10° S 04:44:30 12° SSE 04:46:44 10° SE night (unlit)
28 Jan - 06:42:40 10° SW 06:48:13 43° SSE 06:52:36 10° E night (unlit)
28 Jan - 08:46:57 10° W 08:51:46 79° N 08:56:14 10° E night (unlit)
28 Jan - 10:51:01 10° WNW 10:55:28 88° S 11:00:34 10° ESE visible
28 Jan - 12:54:42 10° W 12:59:00 32° SSW 13:04:33 10° SE visible
29 Jan - 04:10:01 10° SSE 04:11:47 11° SSE 04:13:26 10° SE night (unlit)
29 Jan - 06:09:46 10° SW 06:15:40 39° SSE 06:20:08 10° E night (unlit)
29 Jan - 08:14:09 10° W 08:19:15 84° N 08:23:40 10° E night (unlit)
29 Jan - 10:18:29 10° WNW 10:22:57 86° N 10:27:45 10° E visible
29 Jan - 12:22:13 10° W 12:26:26 35° SSW 12:31:44 10° SE visible
30 Jan - 05:36:50 10° SW 05:43:03 36° SSE 05:47:41 10° E night (unlit)
30 Jan - 07:41:14 10° WSW 07:46:43 89° NNW 07:51:11 10° ENE night (unlit)
30 Jan - 09:45:52 10° W 09:50:26 81° N 09:55:02 10° E visible
30 Jan - 11:49:42 10° W 11:53:54 39° SSW 11:58:57 10° SE visible
31 Jan - 05:03:51 10° SW 05:10:24 33° SSE 05:15:13 10° E night (unlit)
31 Jan - 07:08:14 10° WSW 07:14:10 85° SSE 07:18:44 10° ENE night (unlit)
31 Jan - 09:13:10 10° W 09:17:55 77° N 09:22:23 10° E visible
31 Jan - 11:17:10 10° W 11:21:23 44° SSW 11:26:14 10° SE visible
31 Jan - 13:23:33 10° SW 13:24:50 11° SSW 13:26:10 10° SSW daylight
01 Feb - 04:30:49 10° SSW 04:37:43 31° SSE 04:42:43 10° E visible
01 Feb - 06:35:09 10° WSW 06:41:35 79° SSE 06:46:19 10° ENE night (unlit)
01 Feb - 08:40:22 10° W 08:45:23 75° N 08:49:48 10° E night (unlit)
01 Feb - 10:44:35 10° W 10:48:54 50° SSW 10:53:34 10° SE visible
01 Feb - 12:50:15 10° WSW 12:52:13 12° SSW 12:54:22 10° S visible
02 Feb - 03:57:46 10° SSW 04:04:58 29° SSE 04:10:12 10° E visible
02 Feb - 06:01:59 10° WSW 06:08:59 73° SSE 06:13:56 10° ENE night (unlit)
02 Feb - 08:07:28 10° W 08:12:51 75° N 08:17:17 10° E night (unlit)
02 Feb - 10:11:59 10° W 10:16:25 58° SSW 10:20:57 10° ESE visible
02 Feb - 12:17:13 10° WSW 12:19:38 14° SSW 12:22:18 10° S visible
03 Feb - 03:24:43 10° SSW 03:32:10 27° SSE 03:37:38 10° E visible
03 Feb - 05:28:45 10° WSW 05:36:21 68° SSE 05:41:33 10° E night (unlit)
03 Feb - 07:34:27 10° W 07:40:16 75° N 07:44:49 10° E night (unlit)
03 Feb - 09:39:17 10° W 09:43:57 66° SSW 09:48:23 10° ESE visible
03 Feb - 11:44:18 10° WSW 11:47:06 16° SSW 11:50:08 10° S visible
04 Feb - 02:51:40 10° SSW 02:59:20 25° SSE 03:05:01 10° E visible
04 Feb - 04:55:26 10° WSW 05:03:39 63° SSE 05:09:10 10° E visible
04 Feb - 07:01:21 10° W 07:07:41 77° N 07:12:23 10° E night (unlit)
04 Feb - 09:06:30 10° WNW 09:11:27 75° SSW 09:15:51 10° ESE night (unlit)
04 Feb - 11:11:26 10° W 11:14:35 19° SSW 11:17:55 10° SSE visible
05 Feb - 02:18:39 10° SSW 02:26:26 23° SSE 02:32:20 10° E visible
05 Feb - 04:22:04 10° SW 04:30:55 58° SSE 04:36:47 10° E visible
05 Feb - 06:28:07 10° W 06:35:03 80° N 06:39:59 10° E night (unlit)
05 Feb - 08:33:39 10° WNW 08:38:56 83° SSW 08:43:22 10° ESE night (unlit)
05 Feb - 10:38:35 10° W 10:42:06 22° SSW 10:45:40 10° SSE visible
06 Feb - 01:45:41 10° S 01:53:29 22° SE 01:59:32 10° E visible
06 Feb - 03:48:40 10° SW 03:58:07 55° SSE 04:04:21 10° E visible
06 Feb - 05:54:47 10° W 06:02:23 83° N 06:07:36 10° E night (unlit)
06 Feb - 08:00:41 10° WNW 08:06:25 89° SSW 08:10:56 10° ESE night (unlit)
06 Feb - 10:05:43 10° W 10:09:38 27° SSW 10:13:25 10° SSE visible
